TimeEDT,TemperatureF,Dew PointF,Humidity,Sea Level PressureIn,VisibilityMPH,Wind Direction,Wind SpeedMPH,Gust SpeedMPH,PrecipitationIn,Events,Conditions,WindDirDegrees,DateUTC
12:54 AM,72.0,70.0,93,30.23,10.0,South,5.8,-,N/A,,Clear,170,2013-07-03 04:54:00
1:54 AM,72.0,69.1,91,30.22,10.0,South,5.8,-,N/A,,Clear,180,2013-07-03 05:54:00
2:54 AM,72.0,69.1,91,30.22,10.0,South,4.6,-,N/A,,Clear,190,2013-07-03 06:54:00
3:31 AM,71.6,69.8,94,30.21,10.0,South,3.5,-,N/A,,Scattered Clouds,190,2013-07-03 07:31:00
3:42 AM,71.6,69.8,94,30.21,10.0,South,3.5,-,N/A,,Mostly Cloudy,190,2013-07-03 07:42:00
3:54 AM,72.0,70.0,93,30.22,8.0,South,4.6,-,N/A,,Overcast,190,2013-07-03 07:54:00
4:54 AM,73.9,72.0,93,30.23,7.0,SSW,8.1,-,N/A,,Overcast,200,2013-07-03 08:54:00
5:12 AM,73.4,71.6,94,30.23,8.0,SSW,5.8,-,N/A,,Overcast,200,2013-07-03 09:12:00
5:54 AM,73.9,72.0,93,30.23,8.0,Calm,Calm,-,N/A,,Mostly Cloudy,0,2013-07-03 09:54:00
6:22 AM,73.4,71.6,94,30.24,8.0,South,4.6,-,N/A,,Mostly Cloudy,170,2013-07-03 10:22:00
6:42 AM,75.2,71.6,89,30.24,8.0,South,5.8,-,N/A,,Scattered Clouds,180,2013-07-03 10:42:00
6:54 AM,75.0,73.0,94,30.24,9.0,South,5.8,-,N/A,,Mostly Cloudy,180,2013-07-03 10:54:00
7:01 AM,75.2,73.4,94,30.24,9.0,South,5.8,-,N/A,,Mostly Cloudy,180,2013-07-03 11:01:00
7:54 AM,77.0,73.0,88,30.25,10.0,South,9.2,-,N/A,,Mostly Cloudy,190,2013-07-03 11:54:00
8:54 AM,80.1,73.9,81,30.26,10.0,South,10.4,-,N/A,,Overcast,190,2013-07-03 12:54:00
9:16 AM,80.6,73.4,79,30.26,10.0,SSW,11.5,-,N/A,,Overcast,200,2013-07-03 13:16:00
9:28 AM,80.6,73.4,79,30.26,10.0,SSW,10.4,-,N/A,,Overcast,200,2013-07-03 13:28:00
9:54 AM,81.0,75.0,82,30.26,10.0,South,11.5,-,N/A,,Overcast,180,2013-07-03 13:54:00
10:54 AM,84.0,73.0,69,30.27,10.0,SW,16.1,23.0,N/A,,Mostly Cloudy,220,2013-07-03 14:54:00
11:01 AM,84.2,73.4,70,30.27,10.0,SW,11.5,21.9,N/A,,Scattered Clouds,220,2013-07-03 15:01:00
11:16 AM,82.4,73.4,74,30.26,10.0,WSW,6.9,-,N/A,,Mostly Cloudy,240,2013-07-03 15:16:00
11:54 AM,82.9,73.9,74,30.26,10.0,WSW,5.8,-,N/A,,Mostly Cloudy,250,2013-07-03 15:54:00
12:06 PM,84.2,73.4,70,30.26,10.0,SW,10.4,-,N/A,,Mostly Cloudy,230,2013-07-03 16:06:00
12:54 PM,87.1,73.9,65,30.26,10.0,SW,10.4,-,N/A,,Mostly Cloudy,220,2013-07-03 16:54:00
1:54 PM,89.1,73.0,59,30.24,10.0,SW,9.2,-,N/A,,Partly Cloudy,220,2013-07-03 17:54:00
2:54 PM,89.1,73.0,59,30.22,10.0,SSW,13.8,-,N/A,,Scattered Clouds,210,2013-07-03 18:54:00
3:54 PM,89.1,72.0,57,30.22,10.0,SW,11.5,-,N/A,,Partly Cloudy,220,2013-07-03 19:54:00
4:54 PM,89.1,72.0,57,30.22,10.0,South,13.8,-,N/A,,Scattered Clouds,190,2013-07-03 20:54:00
5:54 PM,86.0,73.9,67,30.21,10.0,South,12.7,-,N/A,,Partly Cloudy,180,2013-07-03 21:54:00
6:54 PM,82.9,73.9,74,30.23,10.0,SSW,10.4,-,N/A,,Partly Cloudy,200,2013-07-03 22:54:00
7:54 PM,81.0,73.0,77,30.23,10.0,South,8.1,-,N/A,,Clear,190,2013-07-03 23:54:00
8:54 PM,79.0,73.0,82,30.23,10.0,South,5.8,-,N/A,,Clear,180,2013-07-04 00:54:00
9:54 PM,78.1,73.0,84,30.25,10.0,South,9.2,-,N/A,,Clear,180,2013-07-04 01:54:00
10:54 PM,77.0,73.0,88,30.27,10.0,South,6.9,-,N/A,,Clear,190,2013-07-04 02:54:00
11:54 PM,75.9,73.0,91,30.27,10.0,South,5.8,-,N/A,,Clear,190,2013-07-04 03:54:00